AB8DT-10 Weather Reports


time (UTC)temp
C
wind
direction
speed
KPH
gust
KPH
rain 1hr
cm
rain 24hr
cm
rain mn
cm
humidity
%
barometer
mb
20260509064641 10 219 4.8 9.7 0.00 0.00 0.00 43
20260509064141 10 240 6.4 12.9 0.00 0.00 0.00 42
20260509063641 10 223 3.2 8.0 0.00 0.00 0.00 41
20260509063141 10 236 0.0 0.0 0.00 0.00 0.00 42
20260509062641 10 236 0.0 0.0 0.00 0.00 0.00 40
20260509062141 10 236 0.0 0.0 0.00 0.00 0.00 39
20260509061641 10 236 0.0 0.0 0.00 0.00 0.00 40
20260509061141 10 236 0.0 0.0 0.00 0.00 0.00 40
20260509060641 10 236 0.0 0.0 0.00 0.00 0.00 39
20260509060141 10 236 0.0 0.0 0.00 0.00 0.00 37
20260509055641 10 236 0.0 0.0 0.00 0.00 0.00 37
20260509055141 10 236 0.0 0.0 0.00 0.00 0.00 36
20260509054641 10 236 0.0 8.0 0.00 0.00 0.00 36
20260509054141 10 219 1.6 9.7 0.00 0.00 0.00 36
20260509053641 11 254 1.6 6.4 0.00 0.00 0.00 36
20260509053141 10 236 1.6 9.7 0.00 0.00 0.00 35
20260509052641 10 219 4.8 9.7 0.00 0.00 0.00 35
20260509052141 10 246 6.4 11.3 0.00 0.00 0.00 35
20260509051641 10 236 9.7 9.7 0.00 0.00 0.00 36
20260509051141 10 192 1.6 9.7 0.00 0.00 0.00 37
20260509050641 10 220 1.6 11.3 0.00 0.00 0.00 38
20260509050141 10 163 1.6 9.7 0.00 0.00 0.00 37
20260509045641 10 210 3.2 6.4 0.00 0.00 0.00 38
20260509045141 10 227 4.8 8.0 0.00 0.00 0.00 37
20260509044641 10 222 3.2 8.0 0.00 0.00 0.00 38
20260509044141 10 233 4.8 8.0 0.00 0.00 0.00 37
20260509043641 10 230 6.4 6.4 0.00 0.00 0.00 39
20260509043141 10 156 0.0 1.6 0.00 0.00 0.00 39
20260509042641 10 244 1.6 6.4 0.00 0.00 0.00 39
20260509042141 10 196 0.0 0.0 0.00 0.00 0.00 38
20260509041641 10 196 0.0 0.0 0.00 0.00 0.00 37
20260509041141 10 196 0.0 4.8 0.00 0.00 0.00 39
20260509040641 10 191 0.0 6.4 0.00 0.00 0.00 38
20260509040141 10 210 6.4 6.4 0.00 0.00 0.00 39
20260509035641 10 240 4.8 6.4 0.00 0.00 0.00 39
20260509035141 10 222 0.0 0.0 0.00 0.00 0.00 41
20260509034641 10 222 0.0 0.0 0.00 0.00 0.00 40
20260509034141 10 222 0.0 0.0 0.00 0.00 0.00 39
20260509033642 10 222 0.0 0.0 0.00 0.00 0.00 38
20260509033141 10 222 0.0 0.0 0.00 0.00 0.00 38
20260509032641 10 222 0.0 0.0 0.00 0.00 0.00 38
20260509032141 11 222 0.0 3.2 0.00 0.00 0.00 38
20260509031641 11 189 0.0 1.6 0.00 0.00 0.00 38
20260509031141 11 219 0.0 4.8 0.00 0.00 0.00 37
20260509030641 11 213 4.8 6.4 0.00 0.00 0.00 36
20260509030141 11 227 0.0 4.8 0.00 0.00 0.00 37
20260509025641 11 236 3.2 4.8 0.00 0.00 0.00 38
20260509025141 11 198 0.0 0.0 0.00 0.00 0.00 38
20260509024641 11 198 0.0 0.0 0.00 0.00 0.00 38
20260509024141 11 198 0.0 0.0 0.00 0.00 0.00 36
20260509023641 11 198 0.0 0.0 0.00 0.00 0.00 37
20260509023141 11 198 0.0 0.0 0.00 0.00 0.00 37
20260509022641 11 198 0.0 0.0 0.00 0.00 0.00 36
20260509022141 11 198 0.0 0.0 0.00 0.00 0.00 37
20260509021641 11 198 0.0 3.2 0.00 0.00 0.00 37
20260509021141 11 215 0.0 0.0 0.00 0.00 0.00 37
20260509020641 11 215 0.0 0.0 0.00 0.00 0.00 36
20260509020141 11 215 0.0 0.0 0.00 0.00 0.00 36
20260509015641 11 215 0.0 0.0 0.00 0.00 0.00 37
20260509015141 11 215 0.0 0.0 0.00 0.00 0.00 36
20260509014641 12 215 0.0 0.0 0.00 0.00 0.00 36
20260509014141 12 215 0.0 0.0 0.00 0.00 0.00 38
20260509013641 12 215 0.0 3.2 0.00 0.00 0.00 36
20260509013141 12 220 0.0 4.8 0.00 0.00 0.00 37
20260509012641 13 234 3.2 4.8 0.00 0.00 0.00 32
20260509012141 13 246 0.0 0.0 0.00 0.00 0.00 36
20260509011641 13 217 0.0 3.2 0.00 0.00 0.00 31
20260509011141 13 226 1.6 4.8 0.00 0.00 0.00 32
20260509010641 13 257 0.0 0.0 0.00 0.00 0.00 30
20260509010141 13 257 0.0 0.0 0.00 0.00 0.00 31
20260509005641 14 257 0.0 0.0 0.00 0.00 0.00 30
20260509005141 15 257 0.0 0.0 0.00 0.00 0.00 29
20260509004641 15 257 0.0 0.0 0.00 0.00 0.00 27
20260509004141 15 257 0.0 0.0 0.00 0.00 0.00 27
20260509003641 15 257 0.0 0.0 0.00 0.00 0.00 27
20260509003141 15 257 0.0 0.0 0.00 0.00 0.00 27
20260509002641 15 257 0.0 3.2 0.00 0.00 0.00 27
20260509002141 15 285 1.6 9.7 0.00 0.00 0.00 26
20260509001641 15 270 9.7 11.3 0.00 0.00 0.00 26
20260509001141 15 322 1.6 9.7 0.00 0.00 0.00 25
20260509000641 16 260 4.8 8.0 0.00 0.00 0.00 25
20260509000141 16 267 1.6 9.7 0.00 0.00 0.00 25
20260508235641 15 279 3.2 11.3 0.00 0.00 0.00 24
20260508235141 16 285 3.2 9.7 0.00 0.00 0.00 25
20260508234641 16 270 4.8 12.9 0.00 0.00 0.00 25
20260508234142 15 281 6.4 17.7 0.00 0.00 0.00 24
20260508233642 16 255 12.9 19.3 0.00 0.00 0.00 25
20260508233142 16 248 9.7 16.1 0.00 0.00 0.00 24
20260508231642 16 253 11.3 16.1 0.00 0.00 0.00 25
20260508231142 16 323 8.0 14.5 0.00 0.00 0.00 24
20260508230641 16 262 9.7 14.5 0.00 0.00 0.00 24
20260508230142 16 279 1.6 12.9 0.00 0.00 0.00 24
20260508225642 16 281 11.3 17.7 0.00 0.00 0.00 26
20260508225142 16 270 8.0 16.1 0.00 0.00 0.00 25
20260508224642 16 255 12.9 17.7 0.00 0.00 0.00 24
20260508224142 16 282 9.7 14.5 0.00 0.00 0.00 25
20260508223642 16 264 14.5 19.3 0.00 0.00 0.00 24
20260508223142 16 337 3.2 16.1 0.00 0.00 0.00 25
20260508222642 16 281 14.5 19.3 0.00 0.00 0.00 23
20260508222142 16 299 11.3 17.7 0.00 0.00 0.00 23
20260508221642 16 312 6.4 12.9 0.00 0.00 0.00 24
20260508221142 16 295 4.8 14.5 0.00 0.00 0.00 23
20260508220642 16 254 12.9 20.9 0.00 0.00 0.00 24
20260508220142 16 257 0.0 16.1 0.00 0.00 0.00 24
20260508215642 16 258 8.0 9.7 0.00 0.00 0.00 24
20260508215142 16 279 8.0 25.7 0.00 0.00 0.00 24
20260508214642 16 302 12.9 20.9 0.00 0.00 0.00 23
20260508214142 16 293 11.3 17.7 0.00 0.00 0.00 23
20260508213642 16 246 4.8 16.1 0.00 0.00 0.00 25
20260508213142 16 281 12.9 20.9 0.00 0.00 0.00 22
20260508212642 16 261 3.2 12.9 0.00 0.00 0.00 23
20260508212142 16 288 6.4 20.9 0.00 0.00 0.00 23
20260508211642 16 313 14.5 20.9 0.00 0.00 0.00 22
20260508211142 16 302 9.7 20.9 0.00 0.00 0.00 24
20260508210642 16 337 4.8 14.5 0.00 0.00 0.00 22
20260508210142 16 331 6.4 12.9 0.00 0.00 0.00 22
20260508205642 16 279 8.0 20.9 0.00 0.00 0.00 21
20260508205142 16 272 19.3 22.5 0.00 0.00 0.00 21
20260508204642 16 52 3.2 14.5 0.00 0.00 0.00 23
20260508204142 16 323 11.3 20.9 0.00 0.00 0.00 26
20260508203642 16 319 17.7 24.1 0.00 0.00 0.00 23
20260508203142 16 303 16.1 16.1 0.00 0.00 0.00 25
20260508202642 16 313 0.0 17.7 0.00 0.00 0.00 22
20260508202142 16 241 12.9 20.9 0.00 0.00 0.00 23
20260508201642 16 255 16.1 22.5 0.00 0.00 0.00 23
20260508201142 16 30 8.0 19.3 0.00 0.00 0.00 24
20260508200642 16 351 14.5 20.9 0.00 0.00 0.00 23
20260508200142 16 340 11.3 24.1 0.00 0.00 0.00 25
20260508195642 16 312 3.2 12.9 0.00 0.00 0.00 25
20260508195142 16 334 9.7 19.3 0.00 0.00 0.00 23
20260508194642 16 254 17.7 19.3 0.00 0.00 0.00 24
20260508194142 16 275 0.0 11.3 0.00 0.00 0.00 24
20260508193642 16 285 8.0 17.7 0.00 0.00 0.00 27
20260508193142 16 52 14.5 19.3 0.00 0.00 0.00 28
20260508192642 16 277 9.7 27.4 0.00 0.00 0.00 24
20260508192142 16 288 11.3 16.1 0.00 0.00 0.00 28
20260508191642 16 306 8.0 14.5 0.00 0.00 0.00 24
20260508191142 16 7 4.8 16.1 0.00 0.00 0.00 26
20260508190642 16 37 3.2 17.7 0.00 0.00 0.00 26
20260508190142 15 281 14.5 20.9 0.00 0.00 0.00 27
20260508185642 15 279 14.5 24.1 0.00 0.00 0.00 27
20260508185142 15 299 11.3 20.9 0.00 0.00 0.00 28
20260508184642 15 355 11.3 14.5 0.00 0.00 0.00 29
20260508184142 15 286 8.0 17.7 0.00 0.00 0.00 24
20260508183642 15 261 8.0 16.1 0.00 0.00 0.00 28
20260508183142 15 303 8.0 12.9 0.00 0.00 0.00 26
20260508182642 15 289 11.3 16.1 0.00 0.00 0.00 27
20260508182142 16 265 4.8 16.1 0.00 0.00 0.00 28
20260508181642 16 315 8.0 12.9 0.00 0.00 0.00 28
20260508181142 15 177 6.4 19.3 0.00 0.00 0.00 29
20260508180642 15 258 9.7 11.3 0.00 0.00 0.00 26
20260508180142 15 281 9.7 17.7 0.00 0.00 0.00 27
20260508175642 15 248 8.0 17.7 0.00 0.00 0.00 28
20260508175142 15 265 11.3 24.1 0.00 0.00 0.00 29
20260508174642 15 286 1.6 12.9 0.00 0.00 0.00 29
20260508174142 15 253 8.0 9.7 0.00 0.00 0.00 30
20260508173642 15 223 1.6 12.9 0.00 0.00 0.00 31
20260508173142 14 313 8.0 20.9 0.00 0.00 0.00 29
20260508172642 14 358 9.7 19.3 0.00 0.00 0.00 29
20260508172142 15 348 8.0 25.7 0.00 0.00 0.00 33
20260508171642 15 248 8.0 16.1 0.00 0.00 0.00 28
20260508171142 14 278 3.2 20.9 0.00 0.00 0.00 29
20260508170642 15 306 6.4 24.1 0.00 0.00 0.00 30
20260508170142 15 289 20.9 20.9 0.00 0.00 0.00 28
20260508165642 15 306 3.2 16.1 0.00 0.00 0.00 29
20260508165142 14 323 8.0 19.3 0.00 0.00 0.00 29
20260508164642 14 274 1.6 25.7 0.00 0.00 0.00 31
20260508164142 14 255 14.5 17.7 0.00 0.00 0.00 28
20260508163642 14 281 9.7 14.5 0.00 0.00 0.00 29
20260508163142 14 323 1.6 14.5 0.00 0.00 0.00 28
20260508162642 14 286 4.8 17.7 0.00 0.00 0.00 30
20260508161142 14 261 6.4 16.1 0.00 0.00 0.00 29
20260508160642 14 261 12.9 12.9 0.00 0.00 0.00 32
20260508160142 13 191 6.4 16.1 0.00 0.00 0.00 29
20260508155642 13 23 3.2 12.9 0.00 0.00 0.00 26
20260508155142 13 261 11.3 12.9 0.00 0.00 0.00 27
20260508154642 13 284 3.2 24.1 0.00 0.00 0.00 28
20260508154142 13 125 0.0 11.3 0.00 0.00 0.00 31
20260508153642 13 222 8.0 17.7 0.00 0.00 0.00 29
20260508153142 13 260 11.3 19.3 0.00 0.00 0.00 32
20260508152642 13 247 9.7 22.5 0.00 0.00 0.00 31
20260508152142 13 257 12.9 27.4 0.00 0.00 0.00 29
20260508151642 13 255 14.5 16.1 0.00 0.00 0.00 31
20260508151142 13 241 11.3 14.5 0.00 0.00 0.00 35
20260508150642 12 315 8.0 17.7 0.00 0.00 0.00 27
20260508150142 13 247 11.3 17.7 0.00 0.00 0.00 33
20260508145642 13 285 6.4 14.5 0.00 0.00 0.00 31